This is the latest recevied weather packets stored in our database for station/object N5JXS. If no packets are shown the sender has not sent any weather packets the latest 10 day(s).
| Time | Temp. | Humidity | Pressure | Rain* | Wind** | Luminosity | Snow |
|---|---|---|---|---|---|---|---|
| 1777027879 | 6.11° C | 25% | 1014 hPa | 0 mm | - | 0 W/m² | - |
| 1777027575 | 5.56° C | 26% | 1013.6 hPa | 0 mm | - | 0 W/m² | - |
| 1777027271 | 6.11° C | 26% | 1013.9 hPa | 0 mm | - | 0 W/m² | - |
| 1777026967 | 5.56° C | 26% | 1014 hPa | 0 mm | - | 0 W/m² | - |
| 1777026664 | 6.11° C | 26% | 1014 hPa | 0 mm | - | 0 W/m² | - |
| 1777026359 | 6.11° C | 26% | 1014 hPa | 0 mm | - | 0 W/m² | - |
| 1777026056 | 5.56° C | 26% | 1014.3 hPa | 0 mm | - | 0 W/m² | - |
| 1777025754 | 6.11° C | 26% | 1014.1 hPa | 0 mm | - | 0 W/m² | - |
| 1777025449 | 5.56° C | 26% | 1014.3 hPa | 0 mm | - | 0 W/m² | - |
| 1777025139 | 5.56° C | 27% | 1014 hPa | 0 mm | - | 0 W/m² | - |
| 1777024839 | 5.56° C | 27% | 1014.4 hPa | 0 mm | - | 0 W/m² | - |
| 1777024535 | 5.56° C | 28% | 1014.4 hPa | 0 mm | - | 0 W/m² | - |
| 1777024232 | 5.56° C | 28% | 1014.4 hPa | 0 mm | - | 0 W/m² | - |
| 1777023927 | 5.56° C | 28% | 1014.6 hPa | 0 mm | - | 0 W/m² | - |
| 1777023624 | 5° C | 29% | 1014.8 hPa | 0 mm | - | 0 W/m² | - |
| 1777023321 | 5° C | 29% | 1014.8 hPa | 0 mm | - | 0 W/m² | - |
| 1777023018 | 4.44° C | 30% | 1014.6 hPa | 0 mm | - | 0 W/m² | - |
| 1777022714 | 3.89° C | 31% | 1015 hPa | 0 mm | - | 0 W/m² | - |
| 1777022409 | 3.89° C | 32% | 1014.6 hPa | 0 mm | - | 0 W/m² | - |
| 1777022105 | 3.33° C | 33% | 1014.9 hPa | 0 mm | - | 0 W/m² | - |
| 1777021801 | 3.33° C | 33% | 1014.8 hPa | 0 mm | - | 0 W/m² | - |
| 1777021497 | 3.33° C | 34% | 1015 hPa | 0 mm | - | 0 W/m² | - |
| 1777021194 | 3.33° C | 34% | 1015 hPa | 0 mm | - | 0 W/m² | - |
| 1777020889 | 3.33° C | 34% | 1015 hPa | 0 mm | - | 0 W/m² | - |
| 1777020585 | 2.78° C | 35% | 1015.1 hPa | 0 mm | - | 0 W/m² | - |
* Rain latest hour (hover to see other rain measurements)
** Current wind speed in m/s (hover to see current wind gust speed)